sat.trackr.live / text

‹ back to catalog

STARLINK-34035

NORAD 63937 · 2025-098M

PAYLOAD ACTIVE UNKNOWN

§ Identity

Operator
Country
US
Launch date
2025-05-13
Launch site
AFWTR
Launch vehicle
Mass (kg)
RCS (m²)

Purposes: comms

External: N2YO · Heavens-Above · Gunter

§ Orbital elements

Epoch: 2026-09-19T22:53:58.818336Z

Period
94.14 min
Inclination
70.0013°
Eccentricity
0.0002599
Mean motion
15.29588945 rev/d
Perigee alt
475.3 km
Apogee alt
478.8 km
Semi-major
6,855.2 km
B*
4.1064e-4
RAAN
142.1685°
Arg perigee
261.4099°
Mean anomaly
98.6782°
Rev number
7,571

§ Raw data

STARLINK-340351 63937U 25098M   26262.95415299  .00011698  00000+0  41064-3 0  99962 63937  70.0013 142.1685 0002599 261.4099  98.6782 15.29588945 75710

JSON: /api/v1/satellites/63937 · /tle

For live sub-satellite position, see the globe view (requires WebGL).

§ Visibility from observer

Set your observer location to see the next 7 days of passes ≥ 10°. The values pass through the URL so the page stays shareable.

No JS? Fill the form by hand. The geolocation button needs JavaScript.